Location: Poughquag
(41.6090°N, 73.6820°W)
Time: 14:54:17
(UTC-04:00)

Transit 2A - Pass Details

Date: 07 June 2020
Orbit: 592 x 967 km, 66.7° (Epoch: 05 July)

Event Time Altitude Azimuth Distance (km) Brightness Sun altitude
Rises 22:53:19 0° 313° (NW) 3,621 10.8 -19.7°
Reaches altitude 10° 22:56:52 10° 293° (WNW) 2,698 9.5 -20.1°
Maximum altitude 23:00:33 16° 257° (WSW) 2,278 8.6 -20.4°
Drops below altitude 10° 23:04:15 10° 221° (SW) 2,691 8.6 -20.7°
Enters shadow 23:05:01 - 216° (SW) 2,859 8.7 -20.8°
